Theta_e
323 323 324 326 330 332 336 334 331 332 331 329 330 340 341 342 346 350 351 349 344 348 336 333 338 345 346 345 344 343 343 345 346 345 343 340 332 325 323 323 327 329 326 322 319 318 319 321 327
322 323 325 326 330 334 337 332 333 331 330 330 328 333 340 342 343 350 350 347 346 349 332 337 339 344 345 342 340 340 342 345 346 345 344 341 329 324 322 321 321 321 321 319 319 318 319 324 328
321 322 326 328 330 333 334 330 330 330 330 330 332 333 336 339 338 348 351 340 347 346 332 339 340 343 342 340 340 341 344 345 346 345 343 339 327 322 321 320 320 320 319 320 320 319 321 325 327
321 324 325 328 329 329 329 330 329 330 330 329 330 334 333 332 337 345 348 346 348 347 341 331 339 340 339 339 340 340 341 346 346 345 342 337 325 321 320 320 320 320 320 321 321 321 321 322 324
320 324 328 329 328 327 327 327 328 329 330 329 329 331 334 338 350 352 348 349 348 348 348 332 338 339 338 338 339 339 341 346 346 344 341 334 324 321 320 320 320 321 321 321 321 320 319 320 321
321 323 328 329 328 326 326 326 326 327 327 329 329 329 331 328 334 352 350 349 348 348 348 335 338 339 338 337 337 338 340 344 345 343 339 333 325 321 320 320 321 321 321 320 320 319 319 319 319
320 324 326 328 328 326 326 325 326 327 326 327 326 329 329 326 326 344 352 352 348 346 347 348 337 339 338 337 335 334 333 333 337 339 336 332 326 322 320 320 320 320 320 319 319 319 319 319 319
319 322 324 324 325 325 324 323 324 324 325 324 323 329 330 325 327 335 350 351 348 345 345 347 346 339 339 338 337 336 333 330 328 333 334 332 327 322 320 320 320 320 319 319 319 319 319 319 318
318 321 321 322 321 322 321 322 323 321 321 321 322 323 324 323 327 334 344 351 348 345 344 347 348 348 345 344 338 336 334 330 327 327 332 332 329 324 321 319 320 319 319 319 319 318 318 318 317
318 320 320 321 321 321 320 320 320 320 320 320 321 320 321 322 322 328 335 342 349 347 344 347 349 349 348 345 345 337 336 331 329 324 328 332 333 339 336 330 319 319 319 319 318 318 318 317 326
318 319 320 320 319 319 320 319 318 319 320 320 320 320 320 321 322 321 324 335 343 348 346 347 350 350 349 346 347 345 343 339 331 326 325 330 339 338 333 336 320 318 318 318 318 318 317 327 330
318 318 318 318 318 318 319 318 319 319 319 319 319 318 319 319 321 322 322 325 338 345 346 346 348 350 346 347 347 347 345 343 339 334 327 341 338 336 334 335 334 325 332 326 332 331 329 321 323
318 318 317 317 317 317 317 317 318 318 317 317 318 318 318 319 320 321 322 322 331 340 345 347 348 351 349 342 347 346 346 343 340 339 328 335 341 332 326 332 334 336 334 331 329 327 320 326 329
316 316 316 316 316 317 317 318 317 317 317 317 318 318 319 319 319 320 321 322 324 331 342 348 349 349 346 343 341 336 338 345 342 339 338 326 325 324 321 320 321 324 331 333 332 329 324 332 339
315 317 317 317 317 318 317 318 319 318 317 317 317 318 318 318 319 320 322 324 326 328 336 345 346 350 345 337 334 339 338 341 343 340 333 324 324 322 321 321 321 321 320 320 320 319 320 330 337
316 317 318 318 317 316 315 317 318 317 317 317 317 317 317 318 319 319 320 320 322 325 337 346 345 349 347 345 339 345 344 339 344 343 342 324 321 321 321 321 320 323 323 322 320 323 334 341 340
317 316 316 316 316 317 317 317 318 317 317 317 317 318 318 318 318 319 319 320 320 319 320 340 349 349 340 344 345 347 348 347 345 345 344 340 324 322 320 321 324 321 320 321 321 327 336 337 340
317 316 316 317 317 317 318 318 318 318 317 318 318 317 317 317 318 318 319 319 316 317 317 317 336 343 341 349 350 349 349 348 346 345 346 346 342 328 324 327 330 321 321 329 321 324 330 336 338
316 316 316 317 318 318 318 319 319 318 318 318 318 318 318 318 318 318 318 319 316 316 317 317 317 322 332 349 348 349 348 348 347 346 346 346 344 336 334 334 329 324 326 329 329 325 325 333 339
316 316 317 318 318 318 319 319 319 319 319 318 318 318 318 318 317 318 318 318 320 316 316 317 317 321 325 335 343 348 349 348 348 347 347 341 334 334 330 331 342 340 337 330 331 331 336 336 338
317 317 318 318 318 319 320 320 320 320 319 318 318 318 317 317 317 317 317 318 319 322 320 316 316 321 326 332 346 348 348 347 347 346 345 339 336 330 330 329 335 344 342 342 336 332 334 335 341
318 318 317 318 319 321 320 321 320 320 320 320 318 318 318 318 317 317 318 318 318 320 322 324 318 317 334 346 346 346 345 344 342 345 346 344 339 336 330 328 328 328 335 336 342 339 341 334 341
318 318 318 319 320 321 320 321 320 320 320 319 319 318 316 316 317 318 319 319 320 320 320 322 323 325 326 343 344 346 346 344 345 345 346 344 341 337 330 329 331 336 335 335 338 336 334 330 336
318 318 319 320 321 322 320 320 320 319 317 317 317 317 317 319 319 319 319 319 320 320 321 320 325 327 334 341 344 346 345 343 343 345 345 345 342 336 331 333 335 334 332 332 333 334 336 335 334
319 320 322 321 321 321 317 316 317 317 318 319 318 318 319 319 319 319 319 319 319 320 322 323 321 328 336 340 343 344 345 346 346 346 345 343 341 344 344 339 338 338 338 338 336 333 330 330 332
319 320 320 321 319 317 315 315 317 317 317 318 318 318 318 319 319 319 319 319 319 319 320 323 322 324 331 341 343 344 345 347 347 346 342 341 337 340 343 344 343 342 339 335 332 329 329 328 326
319 319 318 318 317 317 316 315 316 319 319 318 318 318 318 318 318 318 318 319 319 320 320 321 324 323 326 335 342 344 347 347 345 344 345 342 341 339 343 343 343 343 343 342 339 335 335 335 332
316 317 318 317 319 316 314 314 315 317 317 317 317 316 317 316 316 317 317 317 319 319 320 320 324 325 325 330 335 339 340 339 336 332 324 328 329 322 328 321 329 336 338 339 338 338 338 338 337
318 316 316 317 318 318 316 314 316 315 315 317 317 314 316 316 316 315 315 315 316 317 317 320 320 324 325 327 329 330 329 326 323 317 316 316 316 315 317 326 331 334 336 338 340 338 338 339 339
314 314 316 320 317 317 318 317 315 316 317 317 315 315 316 316 315 315 314 314 314 314 315 318 320 319 322 323 325 325 327 326 325 321 321 324 321 319 325 326 327 328 332 335 336 337 336 337 337
Wind_Speed
8 10 8 6 7 6 11 8 1 3 3 6 3 6 6 6 8 4 3 11 16 20 22 23 25 26 26 26 25 23 22 21 21 19 17 13 13 15 17 18 17 16 14 13 12 12 11 12 12
7 8 6 6 8 10 10 7 9 6 7 5 3 4 4 3 3 2 4 14 16 20 23 25 24 25 25 25 23 22 23 23 23 20 16 14 14 16 17 18 17 16 14 13 12 12 11 11 11
7 6 9 5 10 11 2 8 4 3 3 7 1 1 4 4 4 2 4 13 20 20 23 25 25 25 25 23 21 22 24 25 25 21 17 15 16 18 18 18 17 16 14 13 12 12 11 11 10
6 7 6 9 13 7 2 5 0 1 2 6 4 2 1 8 5 5 10 13 19 19 21 22 25 24 24 23 21 22 22 26 26 21 18 17 18 19 19 18 16 15 14 12 11 10 10 9 9
8 8 10 12 16 3 5 4 4 4 3 5 8 3 3 9 10 6 12 12 15 17 19 23 24 24 24 24 23 22 23 26 25 22 19 19 19 19 19 18 17 15 13 12 11 10 9 8 7
12 9 12 16 16 7 8 6 8 8 5 6 4 6 6 8 9 3 8 9 13 17 19 23 26 25 24 24 24 24 25 26 26 24 21 20 20 20 19 18 17 15 14 12 11 10 8 7 6
16 10 16 18 13 10 12 5 9 7 7 6 9 7 4 8 11 1 6 9 13 16 18 19 26 27 26 24 24 25 25 26 27 26 24 22 21 21 20 19 17 15 14 13 11 9 8 6 5
12 9 17 15 12 18 9 8 8 11 8 4 8 4 3 10 10 4 6 9 14 17 18 19 23 28 29 28 26 25 25 25 25 26 26 24 23 22 21 19 18 16 14 13 11 10 8 7 6
8 10 14 17 13 14 9 10 7 6 12 12 13 13 11 11 9 4 7 10 15 19 20 21 23 25 26 24 29 27 25 25 25 26 27 26 24 23 22 20 20 17 15 14 12 10 9 8 7
13 12 16 7 9 9 12 12 13 13 15 15 16 18 16 13 10 8 10 14 17 19 20 21 22 23 24 23 24 30 28 28 28 29 30 28 24 18 16 18 20 19 17 15 13 11 10 9 6
12 13 10 11 16 16 17 14 15 15 15 17 17 16 16 17 16 15 13 16 18 20 20 21 22 23 24 23 22 24 24 25 29 30 31 31 22 20 22 15 22 21 19 16 14 13 11 9 9
9 14 13 13 14 15 18 17 16 16 17 17 18 18 18 19 20 18 16 16 19 21 22 23 24 24 27 23 23 21 23 24 24 29 32 27 27 24 20 17 15 19 15 16 13 10 12 12 12
13 8 11 14 14 14 16 18 17 18 14 16 14 15 16 17 19 20 18 16 17 22 23 24 25 26 27 31 25 25 25 25 25 26 33 32 26 27 26 22 18 15 15 15 15 14 13 11 10
8 7 9 10 13 12 13 18 15 10 9 14 15 14 15 15 16 18 18 18 18 22 24 25 27 29 29 31 33 34 34 27 28 26 29 38 36 33 30 30 27 23 18 15 14 13 13 12 10
7 9 10 13 14 10 10 16 18 15 12 11 13 13 16 16 15 15 15 14 14 21 24 26 28 28 32 33 35 34 33 33 29 29 34 37 38 37 35 32 29 26 24 22 19 18 15 14 12
10 7 11 9 6 7 6 13 6 3 10 12 16 16 16 17 16 15 18 16 16 15 20 23 26 29 32 32 33 31 30 34 29 27 28 39 40 38 36 34 33 27 25 22 20 18 13 12 11
8 10 8 4 8 7 10 10 4 10 18 17 17 18 17 15 15 14 14 17 18 20 21 22 24 26 32 35 33 29 27 29 26 26 28 31 39 39 38 34 29 31 29 25 22 19 15 13 12
6 10 8 10 4 9 13 16 15 14 16 17 17 17 16 17 17 16 16 18 22 23 27 28 26 31 32 30 31 27 28 28 28 31 27 27 29 36 38 33 31 34 30 24 26 23 19 14 14
6 8 11 9 10 13 15 16 16 18 19 20 19 18 19 21 19 19 17 17 22 26 28 32 34 36 36 32 30 31 32 30 29 29 29 28 27 33 36 33 33 33 29 28 27 27 25 18 15
11 12 12 10 9 10 16 18 18 18 21 21 21 21 24 24 24 23 23 22 19 25 29 33 38 36 37 38 39 32 30 27 26 26 28 31 31 31 33 37 29 30 28 31 29 30 19 17 14
11 12 11 13 14 14 19 18 17 13 12 16 20 23 24 26 28 26 24 23 21 20 22 27 36 41 41 41 33 30 24 24 27 28 30 33 34 33 32 37 34 27 29 22 29 28 29 19 15
11 5 8 13 14 14 14 17 17 16 15 15 19 21 20 25 27 29 28 24 25 23 20 20 26 35 36 34 33 35 34 32 32 28 27 27 30 36 39 37 38 37 35 28 19 18 20 23 18
12 5 12 15 17 19 19 16 15 16 15 14 15 18 24 24 20 19 19 20 20 21 22 21 22 25 33 33 37 36 33 29 23 24 25 25 27 28 31 35 33 32 29 27 22 18 18 24 25
6 13 17 17 14 14 15 11 7 11 16 17 18 21 18 15 16 14 15 17 20 20 21 21 22 23 25 32 35 37 36 33 26 26 24 22 22 25 30 32 34 34 30 29 30 27 24 25 26
10 12 11 11 11 12 7 11 12 14 10 15 10 12 12 12 13 13 15 19 20 21 22 20 20 23 22 28 32 35 34 30 28 26 26 24 22 22 24 29 30 30 30 29 31 35 31 37 33
4 7 7 9 10 15 18 7 2 11 2 6 6 9 11 13 16 17 17 19 21 23 24 21 18 22 22 25 32 33 32 30 28 25 24 26 25 24 23 25 24 26 26 29 31 31 27 28 35
6 9 6 10 15 13 10 10 9 6 3 5 10 10 12 14 16 18 19 20 21 21 24 23 18 18 21 24 25 28 29 29 27 27 27 24 24 22 22 22 23 24 24 25 28 33 35 33 35
8 4 5 6 4 7 8 15 10 4 8 10 10 16 16 17 17 18 19 19 19 19 20 23 19 15 17 20 22 24 25 26 24 25 25 22 21 24 21 24 23 22 22 23 27 30 25 29 32
7 9 6 4 4 4 8 7 6 11 13 7 12 20 18 17 19 19 19 19 19 19 20 18 17 15 8 14 17 19 20 22 23 24 25 26 25 24 23 19 18 17 18 20 22 25 25 25 25
9 10 10 8 9 8 12 17 6 10 10 12 24 21 20 18 18 19 20 21 20 20 20 18 14 12 10 9 12 12 14 16 17 20 19 18 20 19 17 17 18 18 16 17 16 16 15 14 13
Wind_Direction
321 324 320 262 238 233 229 174 115 154 172 356 295 297 350 339 335 4 301 176 160 164 174 179 179 178 179 184 185 186 187 186 180 172 165 168 168 166 162 161 159 162 161 160 155 149 143 138 134
306 326 278 268 253 213 199 142 177 68 13 350 176 263 246 67 2 350 83 167 163 166 174 179 181 180 184 186 187 189 190 191 183 178 174 178 174 172 168 165 165 168 168 164 158 153 149 142 136
295 312 274 251 241 244 155 187 97 9 12 25 346 331 350 25 23 8 190 164 162 169 175 182 183 184 185 185 184 186 191 190 184 182 184 185 182 175 172 170 170 171 170 166 161 158 153 147 146
258 237 235 247 228 219 304 146 313 345 105 28 353 74 11 35 2 334 164 159 167 172 178 187 187 186 187 186 185 184 186 186 186 188 191 193 187 181 176 175 175 175 173 169 165 159 157 157 159
238 245 249 232 240 169 227 260 289 303 322 354 339 32 66 34 32 78 157 162 172 175 177 188 191 190 189 188 189 188 188 190 193 195 200 198 191 187 184 181 180 181 180 178 171 164 164 164 167
224 248 234 232 225 212 251 247 275 280 285 311 311 319 76 54 28 64 166 175 184 181 179 190 192 196 195 194 194 195 195 198 202 203 207 204 197 192 190 188 187 187 185 185 178 170 167 173 178
236 214 240 246 238 245 252 257 261 279 270 275 324 290 117 24 12 360 194 190 186 188 184 189 196 197 198 201 201 201 204 206 210 210 208 206 202 199 196 195 194 194 193 192 184 179 181 188 197
230 244 242 247 243 242 250 247 260 264 280 290 288 254 162 343 350 328 213 199 186 191 193 193 195 203 200 202 206 207 208 209 212 213 210 207 205 204 202 201 201 200 200 200 195 190 193 204 218
206 234 236 224 229 241 253 253 199 271 275 269 267 272 283 307 330 320 230 219 199 198 198 198 197 201 200 203 207 207 209 211 211 215 214 209 209 210 208 206 206 206 205 206 204 203 206 217 234
209 225 235 245 235 240 240 257 274 280 268 266 264 271 275 285 291 286 246 232 224 212 206 207 203 200 200 201 205 207 210 210 211 213 214 212 208 208 206 216 211 208 210 212 212 214 219 224 238
208 240 230 236 245 254 265 265 263 265 264 268 275 275 275 277 276 277 266 244 234 226 217 212 213 206 202 203 204 204 204 207 210 210 211 211 211 212 207 210 212 212 213 215 220 222 229 241 235
211 232 242 247 254 250 261 270 266 258 264 270 273 273 272 270 267 266 269 254 237 228 227 219 215 214 211 206 209 206 207 205 206 206 208 204 207 211 208 206 211 215 216 214 218 226 228 241 256
226 211 229 244 251 255 266 262 267 268 270 269 270 272 270 266 266 263 267 266 245 236 231 225 217 217 215 211 211 206 209 209 207 207 210 207 210 211 213 211 207 213 215 223 221 224 240 251 253
188 223 228 243 251 252 257 269 259 253 250 266 274 272 271 268 264 264 265 264 253 243 234 225 224 223 222 221 216 224 219 213 210 209 213 215 216 218 216 220 221 222 217 220 225 236 245 244 246
183 228 222 243 249 258 287 263 251 251 262 265 269 273 274 266 263 263 264 275 273 255 241 232 232 223 231 234 226 226 221 216 215 212 218 222 221 222 221 221 223 225 230 234 237 237 245 246 245
220 240 245 162 228 222 239 267 263 285 275 270 278 279 276 271 268 268 273 277 282 274 242 241 238 225 235 234 228 222 221 225 218 216 219 224 225 224 223 226 227 220 225 231 236 245 239 248 245
200 253 218 245 198 259 234 283 292 271 288 282 279 279 276 272 273 275 284 286 288 277 268 243 238 232 241 238 232 221 221 220 219 220 220 228 226 226 229 229 231 232 233 234 235 237 238 241 248
222 232 212 254 224 249 270 271 274 277 283 283 286 280 275 275 274 276 286 290 281 282 271 263 245 245 240 229 229 221 219 221 216 218 221 220 225 226 229 226 228 234 232 231 239 239 238 240 248
258 259 261 269 272 274 274 279 282 283 284 280 277 274 271 273 273 275 280 286 286 276 272 265 260 251 242 229 222 218 220 218 219 217 218 218 223 226 227 226 234 241 237 235 240 242 245 239 241
241 252 258 269 260 272 280 279 285 279 274 276 273 276 278 277 277 275 277 273 280 280 270 267 256 250 246 240 235 224 221 220 221 218 221 228 230 229 231 231 217 238 233 236 237 246 236 237 230
233 257 277 288 303 276 265 281 277 268 252 256 269 274 272 273 278 279 282 274 272 280 286 274 258 245 243 237 229 223 219 219 224 221 223 229 230 229 232 234 226 225 231 229 235 236 237 228 221
266 277 270 286 290 290 325 290 282 283 283 282 284 289 280 285 284 280 283 279 280 280 281 278 261 251 235 230 222 218 215 219 228 226 226 227 235 228 231 233 234 233 239 230 229 230 222 208 211
276 326 289 294 288 292 283 279 290 293 286 301 324 315 304 297 299 302 297 295 291 289 287 282 274 253 239 227 221 223 221 225 223 226 224 227 235 234 228 233 236 227 231 239 230 222 227 225 210
306 275 277 275 271 269 276 278 295 310 332 317 320 303 313 337 313 313 317 316 311 306 295 283 273 263 238 225 225 218 221 222 218 222 215 213 214 227 225 226 230 237 239 234 235 237 230 229 227
249 269 275 271 240 263 0 302 282 320 358 325 319 327 325 322 328 333 341 336 336 332 324 298 272 260 241 226 224 223 222 222 217 214 216 211 212 215 226 225 227 232 237 237 241 246 255 255 242
266 301 276 287 286 306 315 265 270 339 218 337 336 332 335 332 325 315 317 326 329 334 336 326 285 261 247 231 224 218 218 215 217 221 216 213 216 221 220 222 220 226 232 240 247 247 250 259 250
160 246 357 293 271 261 257 250 264 97 204 329 332 332 334 327 328 333 328 319 320 327 336 336 314 271 250 238 229 221 213 210 214 213 209 208 208 210 209 220 225 229 232 234 237 239 242 241 240
267 66 242 222 281 284 297 305 291 309 353 329 329 335 326 324 323 321 326 334 332 329 331 342 336 300 254 239 230 223 212 204 199 204 208 201 205 205 213 222 224 225 229 232 235 242 241 241 244
181 221 219 280 243 281 298 293 53 312 299 295 298 327 314 318 318 320 323 326 325 330 334 331 346 330 278 238 227 217 207 202 201 206 209 214 216 219 221 219 215 216 218 221 224 228 228 231 232
277 268 240 225 239 228 281 284 327 346 334 289 296 315 312 310 314 315 317 320 325 324 328 333 330 343 324 251 219 210 202 197 198 199 196 200 205 207 201 202 203 202 203 204 202 198 207 205 206